Location: Chico Elementary School
(33.2901°N, 97.8000°W)
Time: 22:13:23
(UTC+00:00)

Daily predictions for brighter satellites

Satellite Brightness Start Highest point End
(mag) Time Altitude Azimuth Time Altitude Azimuth Time Altitude Azimuth
ASTEX 1 3.2 12:01:57 10° N 12:06:50 72° W 12:11:44 10° SSW
SJ-12 4.3 12:07:52 10° NNE 12:11:43 61° E 12:15:32 10° S
Cosmos 1707 Rocket 3.9 12:11:02 33° WNW 12:12:04 38° W 12:16:03 10° SSW
ARIANE 5 R/B 2.6 12:07:20 10° NNE 12:12:25 77° ESE 12:17:25 10° S
Okean 3 4.2 12:15:23 29° W 12:15:23 29° W 12:18:44 10° SSW
Okean 2 4.0 12:20:27 29° WNW 12:21:06 30° W 12:24:34 10° SSW
Meteor 1-22 Rocket 4.5 12:15:31 10° S 12:21:26 76° E 12:27:09 10° NNE
Nadezhda 4 Rocket 4.0 12:16:40 10° N 12:22:57 83° W 12:29:15 10° S
CENTAUR R/B 3.7 12:14:36 10° NNW 12:23:21 71° ENE 12:32:44 10° SE
Meteor 2-10 Rocket 3.4 12:19:03 10° SSW 12:24:11 76° W 12:29:34 10° N
Cosmos 1844 3.7 12:18:55 10° SSW 12:24:34 86° WNW 12:30:21 10° NNE
Cosmos 44 3.7 12:22:26 10° NNW 12:26:42 53° ENE 12:31:04 10° SE
CZ-2D R/B 2.8 12:23:34 10° N 12:26:59 80° WNW 12:30:23 10° SSW
Cosmos 1470 Rocket 4.2 12:23:32 10° SW 12:27:32 33° W 12:31:33 10° NNW
Cosmos 1862 Rocket 4.5 12:27:51 19° NW 12:29:55 27° W 12:33:38 10° SSW
SKYMED 2 4.3 12:27:15 10° SSW 12:31:09 33° W 12:34:46 12° NW
Cosmos 2285 Rocket 4.2 12:30:27 10° SW 12:36:35 50° WNW 12:42:49 10° N
Cosmos 1933 Rocket 3.7 12:37:50 10° SSW 12:41:59 49° W 12:46:12 10° N
Cosmos 1825 1.5 12:40:28 10° N 12:43:29 89° WSW 12:46:26 10° S
IRS-P3 4.1 12:38:47 10° N 12:44:06 71° WNW 12:49:23 10° SSW
Cosmos 1869 Rocket 3.4 12:40:23 10° S 12:44:40 81° W 12:49:00 10° N
Meteor 2-5 Rocket 4.4 12:40:20 10° N 12:46:14 63° E 12:52:01 10° SSE
Cosmos 1943 3.2 12:41:30 10° NNW 12:47:05 68° WSW 12:52:36 10° S
IRS-1C 4.3 12:42:27 10° N 12:47:32 47° WNW 12:52:35 10° SW
Cosmos 1300 4.0 12:47:50 10° WSW 12:49:53 15° WNW 12:51:56 10° NW
SL-4 R/B 3.0 12:49:12 10° SSW 12:52:13 38° SE 12:55:15 10° ENE
Cosmos 2034 Rocket 4.4 12:46:59 10° SSW 12:52:48 41° W 12:58:37 10° N
OAO 3 Copernicus 4.4 12:50:08 10° WSW 12:55:09 84° SSE 13:00:11 10° ENE
Cosmos 1486 Rocket 4.0 12:51:02 10° SSW 12:56:15 86° WNW 13:01:32 10° NNE
Cosmos 1703 Rocket 3.9 12:54:34 10° NNW 12:58:43 43° W 13:02:48 10° SSW
SL-16 R/B 3.9 12:59:55 10° WNW 13:02:22 13° W 13:04:48 10° WSW
ADEOS Rocket 3.8 12:58:22 10° N 13:03:41 32° WNW 13:09:29 10° SW
Cosmos 1892 2.5 13:03:34 10° NNW 13:06:47 49° W 13:09:57 10° S
Cosmos 1503 Rocket 4.3 13:02:12 10° S 13:07:23 74° ESE 13:12:32 10° NNE
SL-19 R/B 4.1 13:02:41 10° N 13:07:53 75° WNW 13:13:04 10° SSW
SL-08 R/B 3.4 13:03:31 10° SSE 13:08:16 87° E 13:13:09 10° NNW
Cosmos 1092 Rocket 4.1 13:02:24 10° N 13:08:42 71° W 13:14:59 10° S
PSLV R/B 3.4 13:05:57 10° N 13:10:07 79° WNW 13:14:18 10° SSW
ACS3 Solar Sail 3.7 13:04:56 10° NNE 13:10:31 35° E 13:15:58 10° SSE
